Home > Weather > Tábor > Past weeks

Flag for Czech Republic Weather for the Past 2 Weeks in Tábor, Czech Republic

Now
56 °F

Partly sunny.


Feels Like: 56 °F
Forecast: 44 / 61 °F
Wind: 5 mph from East

Location: Kocelovice

Current Time: Apr 30, 2016 at 9:16:49 PM

Latest Report: Apr 30, 2016 at 8:00 PM


Visibility: 47 mi

Pressure: 29.95 "Hg

Humidity: 35%

Dew Point: 29 °F

Location of TáborLocation

Historic Weather in Tábor — Graph

°F

Tábor Temperature Yesterday

Maximum temperature yesterday: 54 °F (at 6:00 PM)
Minimum temperature yesterday: 46 °F (at 10:00 PM)
Average temperature yesterday: 51 °F

High & Low Weather Summary for the Past Weeks

 TemperatureHumidityPressure
High62 °F (Apr 30, 5:00 PM)97% (Apr 16, 5:00 AM)30.42 "Hg (Apr 16, 5:00 AM)
Low30 °F (Apr 21, 5:00 AM)27% (Apr 30, 7:00 PM)29.63 "Hg (Apr 26, 2:00 PM)
Average45 °F64%29.94 "Hg
* Reported Apr 15 8:00 PM — Apr 30 8:00 PM, Tábor, Weather by CustomWeather, © 2016

Note: Actual official high and low records may vary slightly from our data, if they occured in-between our weather recording intervals... More about our weather records

Advertising

Tábor Weather History for the Previous 24 Hours

Scroll right to see more
 ConditionsComfort  
Time TempWeatherWind HumidityBarometerVisibility
8:00 PM
Sat, Apr 30
56 °FPartly sunny.5 mph35%29.95 "Hg47 mi
7:00 PM61 °FScattered clouds.6 mph27%29.94 "Hg43 mi
6:00 PM62 °FPartly sunny.6 mph28%29.93 "Hg43 mi
5:00 PM62 °FPartly sunny.5 mph28%29.95 "Hg43 mi
4:00 PM61 °FPartly sunny.5 mph28%29.96 "Hg40 mi
3:00 PM61 °FPartly sunny.5 mph30%29.97 "Hg40 mi
2:00 PM62 °FPartly sunny.5 mph32%29.99 "Hg37 mi
1:00 PM58 °FPartly sunny.6 mph34%30.02 "Hg37 mi
12:00 PM56 °FScattered clouds.5 mph38%30.04 "Hg37 mi
9:00 AM48 °FPassing clouds.3 mph52%30.09 "Hg34 mi
8:00 AM42 °FPassing clouds.3 mph62%30.11 "Hg31 mi
7:00 AM36 °FChilly.2 mph79%30.13 "Hg12 mi
2:00 AM38 °FChilly.5 mph70%30.12 "Hg12 mi
1:00 AM40 °FQuite cool.3 mph63%30.12 "Hg12 mi
10:00 PM
Fri, Apr 29
46 °FPassing clouds.2 mph48%30.09 "Hg47 mi
9:00 PM48 °FPassing clouds.3 mph46%30.08 "Hg47 mi
Weather by CustomWeather, © 2016

See weather overviewHow to use our weather pages